Reflectivity
10 -4 3 17 19 3 14 5 -20 -20 12 13 6 -1 -9 22 18 6 16 35 35 27 26 16 37 29 34 15 -15 -20 -20 -20 -20 -20 -20 -20 -20 -20 -20 -20 -20 -20 -20 -20 -20 -20 -20
19 -7 2 7 11 18 -2 16 3 -20 -5 2 -10 -20 -0 -19 -3 22 28 27 28 26 32 38 32 38 28 6 -20 -20 -20 -20 -20 -20 -20 -20 -20 -20 -20 -20 -20 -20 -20 -20 -20 -20 -20
16 9 7 1 14 19 17 -7 -1 -20 -19 4 -13 -20 -20 -18 -8 9 -6 7 17 28 43 39 39 37 32 2 -20 -20 -20 -20 -20 -20 -20 -20 -20 -20 -20 -20 -20 -20 -20 -20 -20 -20 -20
9 16 1 1 -3 15 17 -17 -20 -20 -20 -20 -20 -20 -20 -20 -20 -5 13 -20 3 16 16 29 15 32 31 23 -20 -20 -20 -20 -20 -20 -20 -20 -20 -20 -20 -20 -20 -20 -20 -20 -20 -20 -20
-12 7 7 13 -5 -11 18 3 -20 -20 -20 -20 -20 -20 -20 -20 -20 -20 -15 -20 1 -3 8 3 9 29 20 -9 -15 -20 -20 -20 -20 -20 -20 -20 -20 -20 -20 -20 -20 -20 -20 -20 -20 -20 -20
3 -7 -0 14 -5 -20 -7 13 -16 -20 -20 -20 -20 -20 -20 -20 -20 -20 -20 21 5 -17 6 -14 -20 19 4 -12 -20 -20 -20 -20 -20 -20 -20 -20 -20 -20 -20 -20 -20 -20 -20 -20 -20 -20 -20
4 8 -20 -20 1 -20 -20 -20 -20 -20 -20 -20 -20 -20 -20 -20 -20 -20 -17 5 -2 14 -8 8 -10 -20 -13 -20 -20 -20 -20 -20 -20 -20 -20 -20 -20 -20 -20 -20 -20 -20 -20 -20 -20 -20 -20
10 4 -9 -20 -20 -13 -20 -20 -20 -20 -20 -20 -20 -20 -20 -20 -20 17 7 -20 -20 -6 16 -11 -20 -20 -20 -20 -20 -20 -20 -20 -20 -20 -20 -20 -20 -20 -20 -20 -20 -20 -20 -20 -20 -20 -20
8 2 13 -6 -20 -20 -20 -20 -20 -20 -20 -20 -20 -20 -20 -20 -20 -20 -20 -20 -20 -20 10 -18 1 -16 -14 -20 -20 -20 -20 -20 -20 -20 -20 -20 -20 -20 -20 -20 -20 -20 -20 -20 -20 -20 -20
-20 4 -7 12 -3 -20 -20 -20 -20 -20 -20 -20 -20 -20 -20 -20 -20 -20 -20 -20 -19 -20 -20 -10 -5 1 -14 -20 -20 -20 -20 -20 -20 -20 -20 -20 -20 -20 -20 -20 -20 -20 -20 -20 -20 -20 -20
-17 -20 -9 0 -19 -6 -20 -20 -20 -20 -20 -20 -20 -20 -20 -20 -20 -20 -20 -20 -20 -20 -20 -8 -16 -20 -20 -20 -20 -20 -20 -20 -20 -20 -20 -20 -20 -20 -20 -20 -20 -20 -20 -20 -20 -20 -20
15 -20 -20 -4 8 -20 -20 -6 -20 -20 -20 -20 -20 -20 -20 -20 -20 -20 -20 -20 -20 -20 -20 -20 -20 -20 -20 -20 -20 -20 -20 -20 -20 -20 -20 -20 -20 -20 -20 -20 -20 -20 -20 -20 -20 -20 -20
17 -1 -20 -20 -20 -19 -20 -20 -20 -20 -20 -20 -20 -20 -20 -20 -20 -20 -20 -20 -20 -20 -20 -20 -20 -20 -20 -20 -20 -20 -20 -20 -20 -20 -20 -20 -20 -20 -20 -20 -20 -20 -20 -20 -20 -20 -20
15 12 -20 -16 -20 -20 -20 -20 -20 -20 -20 -20 -20 -20 -20 -20 -20 -20 -20 -20 -20 -20 -20 -20 -20 -20 -20 -20 -20 -20 -20 -20 -20 -20 -20 -20 -20 -20 -20 -20 -20 -20 -20 -20 -20 -20 -20
16 6 -20 -20 -20 -20 -20 -20 -20 -20 -20 -20 -20 -20 -20 -20 -20 -20 -20 -20 -20 -20 -20 -20 -20 -20 -20 -20 -20 -20 -20 -20 -20 -20 -20 -20 -20 -20 -20 -20 -20 -20 -20 -20 -20 -20 -20
17 15 2 2 -20 -20 -20 -20 -20 -20 -20 -20 -20 -20 -20 -20 -20 -20 -20 -20 -20 -20 -20 -20 -20 -20 -20 -20 -20 -20 -20 -20 -20 -20 -20 -20 -20 -20 -20 -20 -20 -20 -20 -20 -20 -20 -20
14 14 12 -16 -20 -20 -20 -20 -20 -20 -20 -20 -20 -20 -20 -20 -20 -20 -20 -20 -20 -20 -20 -20 -20 -20 -20 -20 -20 -20 -20 -20 -20 -20 -20 -20 -20 -20 -20 -20 -20 -20 -20 -20 -20 -20 -20
12 17 16 12 -20 -20 -20 -20 -20 -20 -20 -20 -20 -20 -20 -20 -20 -20 -20 -20 -20 -20 -20 -20 -20 -20 -20 -20 -20 -20 -20 -20 -20 -20 -20 -20 -20 -20 -20 -20 -20 -20 -20 -20 -20 -20 -20
-20 13 8 14 3 -20 -20 -20 -20 -20 -20 -20 -20 -20 -20 -20 -20 -20 -20 -20 -20 -20 -20 -20 -20 -20 -20 -20 -20 -20 -20 -20 -20 -20 -20 -20 -20 -20 -20 -20 -20 -20 -20 -20 -20 -20 -20
-20 -20 11 10 13 -20 -20 -20 -20 -20 -20 -20 -20 -20 -20 -20 -20 -20 -20 -20 -20 -20 -20 -20 -20 -20 -20 -20 -20 -20 -20 -20 -20 -20 -20 -20 -20 -20 -20 -20 -20 -20 -20 -20 -20 -20 -20
-20 -20 -20 11 11 -20 -20 -20 -20 -20 -20 -20 -20 -20 -20 -20 -20 -20 -20 -20 -20 -20 -20 -20 -20 -20 -20 -20 -20 -20 -20 -20 -20 -20 -20 -20 -20 -20 -20 -20 -20 -20 -20 -20 -20 -20 -20
15 12 8 12 3 -20 -20 -20 -20 -20 -20 -20 -20 -20 -20 -20 -20 -20 -20 -20 -20 -20 -20 -20 -20 -20 -20 -20 -20 -20 -20 -20 -20 -20 -20 -20 -20 -20 -20 -20 -20 -20 -20 -20 -20 -20 -20
12 -20 -12 10 11 -20 -20 -20 -20 -20 -20 -20 2 -20 -20 -20 -20 -20 -20 -20 -20 -20 -20 -20 -20 -20 -20 -20 -20 -20 -20 -20 -20 -20 -20 -20 -20 -20 -20 -20 -20 -20 -20 -20 -20 -20 -20
6 3 -20 -14 9 -20 -20 -20 -20 -20 -20 -20 -20 -20 -4 -20 -20 -20 -20 -20 -20 -20 -20 -20 -20 -20 -20 -20 -20 -20 -20 -20 -20 -20 -20 -20 -20 -20 -20 -20 -20 -20 -20 -20 -20 -20 -20
-2 3 10 -20 -15 -18 -20 -20 -20 -20 -20 4 -5 -20 -20 -20 -20 -5 -16 -20 -20 -20 -20 -20 -20 -20 -20 -20 -20 -20 -20 -20 -20 -20 -20 -20 -20 -20 -20 -20 -20 -20 -20 -20 -20 -20 -20
2 -14 7 3 11 4 -20 -6 -20 -20 -11 -20 -20 -20 -20 -20 -20 -20 6 -19 -20 -20 -20 -20 -20 -20 -20 -20 -20 -20 -20 -20 -20 -20 -20 -20 -20 -20 -20 -20 -20 -20 -20 -20 -20 -20 -20
-20 9 18 12 -20 4 6 -20 5 8 2 -12 -20 -20 -20 -20 -20 -20 -20 -12 -0 -20 -20 -20 -20 -20 -20 -20 -20 -20 -20 -20 -20 -20 -20 -20 -20 -18 -20 -20 -20 -20 -20 -20 -20 -20 -20
-20 7 -1 18 10 -20 -18 -6 -15 -20 -18 -6 -20 -20 -20 -20 -20 -20 -20 -20 -20 -20 -20 -20 -20 -20 -20 -20 -20 -20 -20 -20 -20 -20 -20 -20 -20 -20 -20 -20 -20 -20 -20 -20 -20 -20 -20
6 3 18 -4 -11 -20 -1 3 7 -4 7 13 -10 -20 -10 -6 -20 -20 -20 -20 -20 -20 -15 -20 -20 -20 -17 -20 -20 -20 -20 -20 -20 -20 -20 -20 -20 -20 -20 -20 -20 -20 -20 -20 -20 -20 -20
Wind_Speed
19 20 21 22 22 22 23 22 24 24 26 28 30 32 31 29 28 22 20 19 17 15 17 28 27 17 3 7 6 7 21 16 5 4 5 5 7 5 5 5 3 5 2 4 4 5 3
18 19 20 21 22 21 22 21 21 21 23 24 26 28 28 26 25 26 26 24 26 26 21 31 21 5 3 16 6 8 13 8 6 6 5 7 4 5 7 4 5 2 5 4 4 3 3
18 19 19 21 20 21 20 20 19 19 20 22 25 26 23 25 25 26 27 28 27 24 22 24 17 6 19 3 6 12 7 4 5 3 6 3 3 6 3 5 2 4 4 2 2 2 2
17 18 18 19 20 20 20 19 19 18 19 19 22 24 23 19 22 23 24 24 24 22 23 22 16 6 7 2 9 5 8 6 8 6 7 4 7 8 5 3 6 5 5 2 2 1 3
18 18 18 18 19 20 20 19 19 18 18 17 19 22 23 18 11 21 22 20 17 18 21 12 10 8 5 15 7 8 5 4 4 6 7 4 7 5 6 5 5 7 2 1 4 0 2
17 17 17 17 18 18 19 19 19 18 17 16 17 20 19 20 11 6 9 12 25 14 9 6 4 10 7 6 6 8 5 6 8 4 8 10 7 5 5 6 4 3 2 1 0 3 1
17 17 16 16 17 17 17 18 19 18 17 17 17 19 19 18 17 10 5 3 5 10 19 11 10 9 2 8 4 7 5 5 6 9 4 5 9 3 2 2 3 3 3 2 1 1 3
17 17 16 16 16 17 16 16 17 18 18 17 17 17 16 15 17 16 5 7 4 4 13 15 10 3 2 3 7 14 7 6 6 5 2 8 5 1 2 2 5 4 2 2 3 2 2
15 17 17 16 16 15 16 16 16 17 19 19 16 13 12 11 5 7 5 5 3 5 8 9 4 5 6 8 6 9 6 3 6 6 5 7 1 3 2 5 5 4 4 2 1 6 0
15 16 17 17 16 16 15 15 15 16 17 18 17 13 11 9 6 1 4 2 3 2 8 13 10 7 5 5 5 3 4 3 6 5 4 6 3 3 4 4 2 2 1 1 1 4 3
14 15 16 17 17 16 15 16 16 15 16 17 17 13 12 6 5 3 2 0 1 3 10 9 8 3 7 5 1 9 3 6 4 3 4 3 2 4 4 1 0 2 1 1 1 2 5
14 15 15 15 18 17 16 15 16 16 15 15 14 11 8 4 3 1 2 3 4 10 3 6 4 6 4 6 4 6 6 7 1 6 7 2 1 2 1 1 1 1 2 5 4 3 4
15 14 15 15 15 17 17 16 16 16 16 13 12 7 3 1 0 3 3 4 7 10 3 4 1 4 2 6 6 6 5 5 2 6 4 5 2 2 1 2 2 3 5 4 7 5 6
15 15 14 15 15 16 18 18 17 18 17 16 7 2 3 1 1 1 4 7 12 4 4 2 2 1 4 3 3 3 2 4 3 3 4 4 5 2 2 2 3 1 5 6 5 2 6
12 13 13 15 16 16 17 19 20 18 19 13 5 2 2 3 2 3 6 9 6 5 5 6 2 4 1 1 3 4 2 3 1 2 5 3 3 1 0 1 2 1 2 3 5 2 3
13 13 12 15 16 17 18 18 20 20 17 9 2 3 2 1 2 5 7 5 1 2 0 0 3 4 5 4 3 4 4 4 4 2 3 4 2 1 0 1 4 1 3 2 2 1 5
11 12 13 14 15 15 17 19 21 20 19 5 4 4 3 2 3 6 5 3 3 2 1 1 1 1 2 4 5 4 5 2 4 3 2 4 5 3 1 5 7 2 1 2 2 3 3
13 12 12 13 13 14 16 19 20 18 19 8 3 3 3 1 6 3 3 2 1 3 1 1 1 1 3 3 3 4 5 4 6 6 5 1 5 3 8 3 4 4 5 6 5 5 4
12 14 13 12 12 12 13 17 18 17 14 1 3 2 3 2 5 2 1 2 1 2 2 2 2 2 1 3 1 2 2 1 6 5 6 4 0 3 6 5 1 5 6 5 3 2 8
10 11 12 13 11 12 11 13 16 16 14 3 3 4 6 5 1 7 3 2 2 1 1 2 2 2 1 1 1 2 2 2 4 3 4 4 3 6 8 4 4 5 6 9 9 5 4
10 10 11 12 12 10 10 12 14 15 14 3 4 1 3 2 3 2 3 5 2 3 3 3 2 4 4 3 1 4 3 1 1 4 4 4 4 3 7 10 7 9 8 9 16 16 11
10 11 11 11 12 10 10 10 13 16 13 4 3 2 2 0 2 2 1 5 7 3 6 4 5 2 6 6 7 5 4 3 6 2 5 2 4 2 6 9 8 15 17 18 21 21 21
10 9 10 10 11 10 9 8 10 15 8 3 1 1 3 2 1 4 4 4 5 4 4 4 6 3 4 11 6 5 5 2 2 9 7 6 2 2 7 4 8 12 16 22 10 9 22
12 10 9 8 10 10 8 7 7 8 7 1 0 2 3 3 1 5 3 5 5 6 3 2 5 5 3 1 1 1 2 4 5 7 6 7 5 3 5 5 3 8 2 4 19 15 19
12 10 10 8 7 8 7 7 4 3 4 2 1 3 2 2 3 5 5 5 2 1 2 3 5 5 4 4 3 6 4 3 3 4 7 3 5 2 3 3 12 8 2 8 8 10 21
11 11 11 8 8 8 7 5 4 2 0 2 1 2 3 2 4 1 2 1 3 3 3 3 1 1 4 3 2 3 5 5 3 2 5 3 1 4 2 2 8 5 2 2 2 8 6
10 11 11 8 8 8 8 6 5 5 5 2 2 2 2 2 4 4 4 3 3 0 2 2 2 2 2 3 3 5 6 4 4 6 6 5 2 14 12 7 11 11 5 1 1 8 3
11 10 10 7 8 8 8 8 6 6 7 4 2 4 3 3 5 7 4 4 1 1 2 1 2 1 2 4 4 5 5 6 3 6 7 9 8 5 8 7 15 8 6 9 8 2 2
10 12 9 7 7 9 9 8 7 7 8 7 2 1 1 2 5 3 6 8 8 8 5 3 3 2 5 3 2 0 4 3 5 4 1 4 10 9 13 12 5 7 6 6 2 3 4
Wind_Direction
19 18 16 21 25 24 21 22 22 22 25 29 35 32 34 44 49 61 67 95 117 120 114 112 120 121 4 61 41 311 327 319 308 75 76 102 74 107 107 105 77 81 107 63 72 45 67
23 17 18 20 22 26 23 24 26 25 24 25 23 22 30 38 47 53 61 65 81 88 108 123 110 97 43 72 308 301 314 313 41 67 59 50 103 111 94 68 71 85 88 81 48 37 40
18 23 18 21 21 25 27 23 22 25 28 26 19 17 23 34 48 60 56 62 62 74 95 94 111 112 56 54 317 311 314 359 6 72 82 33 102 75 117 92 111 116 69 44 55 6 11
21 19 19 19 22 22 25 22 16 19 23 22 14 18 22 29 49 61 64 60 45 57 91 90 58 72 81 313 297 339 343 24 30 42 90 59 83 93 61 103 30 65 51 89 6 94 347
18 19 21 18 21 21 21 24 18 14 20 20 19 19 20 17 27 59 64 60 47 35 47 75 49 73 9 323 19 327 9 46 17 17 38 70 65 75 36 72 34 14 150 207 342 169 53
26 19 21 18 16 22 19 19 20 17 18 15 10 8 10 22 27 27 34 54 46 40 358 28 85 70 347 335 324 327 332 50 54 19 26 35 48 69 41 58 192 194 125 70 21 350 49
21 22 19 22 17 16 19 15 14 13 8 3 4 4 7 14 23 42 6 24 39 44 41 58 62 84 280 292 281 357 358 28 42 45 68 20 65 88 77 51 132 111 87 113 117 106 305
24 17 21 17 20 13 13 12 8 4 2 358 359 356 10 9 23 21 35 63 36 130 69 23 49 55 151 263 35 7 19 60 53 77 40 30 76 250 293 29 75 52 97 4 292 215 319
12 18 15 19 14 13 8 7 4 2 356 352 356 352 357 9 60 34 52 45 2 13 70 13 356 0 333 8 26 352 24 48 72 52 37 102 155 312 100 44 79 39 90 42 256 315 274
12 4 11 13 14 10 7 2 2 358 355 350 349 355 349 344 55 255 39 355 20 35 74 355 347 11 358 340 48 0 18 74 43 122 79 76 339 63 75 73 84 142 270 36 353 43 262
12 10 2 7 10 12 4 1 357 358 354 352 350 356 356 46 150 70 166 83 10 54 70 303 313 275 319 62 239 346 356 36 73 96 91 252 74 76 78 176 19 171 185 247 169 67 42
8 10 7 7 5 5 6 3 357 352 352 351 352 348 3 31 65 135 106 74 49 45 27 332 304 354 29 15 22 338 24 43 81 63 41 79 325 52 134 310 21 1 82 40 50 73 17
7 8 7 6 5 1 1 360 357 352 344 345 339 340 35 61 227 146 106 49 46 83 279 289 300 4 59 20 28 38 30 20 81 80 17 2 340 320 72 60 348 70 58 340 355 9 226
359 1 4 2 2 358 355 354 354 351 342 326 327 52 347 88 88 80 65 49 70 220 211 186 196 60 84 358 20 30 68 22 20 77 112 132 332 191 179 181 176 8 131 149 217 262 280
357 355 355 360 2 358 354 350 349 348 349 344 107 27 59 329 112 69 73 49 171 214 177 163 164 111 64 140 137 94 95 182 203 75 130 130 323 344 217 22 81 326 53 151 106 19 292
352 352 355 356 359 357 354 352 347 346 352 11 47 73 11 22 100 63 72 125 53 197 286 355 160 167 158 196 141 140 196 214 173 159 157 189 106 298 264 81 41 125 157 83 26 271 283
346 347 351 356 353 351 353 351 351 346 345 345 49 56 272 18 81 57 89 167 141 180 145 158 307 49 165 172 159 185 197 220 194 170 148 122 106 284 88 200 182 125 190 97 125 180 227
334 339 344 349 351 350 354 355 356 357 351 37 82 37 305 32 51 37 81 53 184 186 158 184 209 226 175 197 177 194 197 213 180 155 146 7 144 224 225 214 181 182 187 154 135 242 232
328 334 341 342 344 352 356 354 355 359 17 43 77 279 311 66 96 27 303 70 146 112 259 204 253 241 156 192 270 241 238 352 156 151 161 179 92 6 350 5 57 210 191 176 142 123 225
314 322 331 335 342 349 357 353 349 352 351 74 82 21 331 47 17 126 143 200 199 175 263 238 275 343 90 250 222 272 241 199 180 178 150 100 173 201 195 195 140 213 209 196 180 191 207
304 308 316 328 334 348 351 353 348 347 348 85 26 168 180 308 352 81 135 170 161 212 200 162 288 227 193 223 219 225 222 73 144 191 133 132 242 195 261 256 246 240 227 201 213 221 201
308 308 311 317 328 340 351 357 350 345 349 70 94 93 31 126 327 111 348 209 194 205 170 227 191 208 196 209 201 231 174 193 206 125 156 172 255 170 266 268 257 260 242 231 233 232 250
300 306 307 311 321 330 345 357 1 354 7 74 310 42 103 321 90 116 225 229 222 167 217 208 210 176 202 238 221 227 208 209 209 162 181 161 188 27 270 329 304 281 237 213 216 211 226
296 297 291 294 310 317 333 347 9 17 41 96 254 112 83 284 209 221 211 188 229 212 226 197 148 159 245 111 180 127 265 244 186 215 172 153 149 168 275 352 277 236 228 196 214 236 219
277 288 288 276 292 305 316 330 341 14 32 72 206 95 108 271 232 282 255 231 258 239 249 235 225 206 140 54 17 330 325 320 254 224 208 180 144 255 241 240 292 301 107 166 174 270 216
280 282 275 262 278 285 293 309 301 269 114 84 224 138 113 111 248 238 318 266 234 224 317 234 7 152 81 109 120 230 250 242 257 102 38 142 63 163 158 241 248 258 350 185 134 287 207
279 276 273 257 266 275 278 290 293 257 214 136 250 212 115 179 268 157 209 217 145 65 235 297 174 150 57 130 171 199 248 206 237 184 164 130 188 222 229 258 279 248 229 289 126 238 156
343 301 282 260 280 281 280 282 278 269 204 170 254 207 173 204 267 195 218 191 149 173 208 201 66 306 62 174 181 217 189 228 208 174 180 168 158 191 208 235 267 157 55 175 218 282 274
359 3 353 314 295 291 277 279 285 277 224 171 258 199 145 201 257 214 220 225 210 191 166 207 285 187 189 135 242 222 235 208 179 247 45 222 194 180 192 215 251 227 231 261 311 288 279